FDX169 PANC-WSSS

Flight info

Callsign FDX169
Flight time N/A
Altitude 26000
Route NODLE R220 NICHO M523 HUVKO/N0481F280 M523 IGPAK/N0496F300 M523 IPGUD Y800 ESNIP Y810 OLDIV Y802 LIGNI Y84 BUBDO A590 OLDUP/N0497F320 A590 JOM M767 TOMAN KARTO2A
Aircraft B77L/H-SDE1E2E3FGHIJ2J3J4J5M1RWXY/LB1D1

Departure

Time 2026-05-06 20:42
Airport Ted Stevens Anchorage International Airport (PANC)

Arrival

Time N/A
Airport Singapore Changi Airport (WSSS)
Time Latitude Longitude Altitude Speed Heading
2026-05-06 20:26 61.19239 -149.99625 166 ft 2 kts 235°
2026-05-06 20:26 61.19246 -149.99599 165 ft 1 kts 252°
2026-05-06 20:26 61.19247 -149.99587 165 ft 0 kts 256°
2026-05-06 20:29 61.19247 -149.99589 165 ft 1 kts 256°
2026-05-06 20:30 61.19243 -149.99625 165 ft 4 kts 255°
2026-05-06 20:30 61.19210 -149.99872 165 ft 12 kts 255°
2026-05-06 20:30 61.19185 -150.00073 165 ft 16 kts 255°
2026-05-06 20:31 61.19153 -150.00316 166 ft 17 kts 254°
2026-05-06 20:31 61.19124 -150.00525 166 ft 11 kts 248°
2026-05-06 20:31 61.19070 -150.00600 166 ft 9 kts 176°
2026-05-06 20:31 61.19001 -150.00566 165 ft 11 kts 165°
2026-05-06 20:32 61.18929 -150.00525 165 ft 9 kts 164°
2026-05-06 20:32 61.18862 -150.00485 166 ft 11 kts 164°
2026-05-06 20:32 61.18780 -150.00439 165 ft 12 kts 164°
2026-05-06 20:32 61.18690 -150.00386 165 ft 14 kts 164°
2026-05-06 20:33 61.18590 -150.00328 165 ft 15 kts 165°
2026-05-06 20:33 61.18484 -150.00267 165 ft 16 kts 164°
2026-05-06 20:33 61.18371 -150.00203 165 ft 17 kts 165°
2026-05-06 20:33 61.18254 -150.00133 165 ft 18 kts 163°
2026-05-06 20:34 61.18131 -150.00063 165 ft 18 kts 165°
2026-05-06 20:34 61.18003 -149.99989 165 ft 19 kts 165°
2026-05-06 20:34 61.17873 -149.99916 165 ft 19 kts 164°
2026-05-06 20:34 61.17741 -149.99835 165 ft 20 kts 165°
2026-05-06 20:35 61.17604 -149.99762 165 ft 20 kts 165°
2026-05-06 20:35 61.17502 -149.99701 165 ft 20 kts 164°
2026-05-06 20:35 61.17419 -149.99655 165 ft 20 kts 166°
2026-05-06 20:36 61.17276 -149.99580 165 ft 21 kts 165°
2026-05-06 20:36 61.17149 -149.99483 165 ft 16 kts 137°
2026-05-06 20:36 61.17124 -149.99278 165 ft 13 kts 91°
2026-05-06 20:36 61.17123 -149.99083 165 ft 14 kts 90°
2026-05-06 20:37 61.17122 -149.98872 165 ft 16 kts 90°
2026-05-06 20:37 61.17121 -149.98598 165 ft 21 kts 91°
2026-05-06 20:37 61.17120 -149.98250 165 ft 26 kts 90°
2026-05-06 20:37 61.17119 -149.97855 165 ft 26 kts 90°
2026-05-06 20:38 61.17120 -149.97502 165 ft 22 kts 89°
2026-05-06 20:38 61.17123 -149.97195 165 ft 19 kts 89°
2026-05-06 20:38 61.17125 -149.96936 165 ft 17 kts 90°
2026-05-06 20:38 61.17125 -149.96670 165 ft 18 kts 89°
2026-05-06 20:39 61.17126 -149.96425 165 ft 15 kts 90°
2026-05-06 20:39 61.17125 -149.96213 165 ft 16 kts 90°
2026-05-06 20:39 61.17125 -149.95943 165 ft 18 kts 89°
2026-05-06 20:39 61.17126 -149.95694 165 ft 15 kts 90°
2026-05-06 20:40 61.17126 -149.95488 165 ft 13 kts 90°
2026-05-06 20:40 61.17125 -149.95317 165 ft 11 kts 91°
2026-05-06 20:40 61.17124 -149.95138 165 ft 13 kts 88°
2026-05-06 20:40 61.17120 -149.94933 165 ft 15 kts 100°
2026-05-06 20:41 61.17055 -149.94847 165 ft 11 kts 189°
2026-05-06 20:41 61.16996 -149.94919 165 ft 8 kts 232°
2026-05-06 20:41 61.16981 -149.95021 165 ft 4 kts 267°
2026-05-06 20:41 61.16981 -149.95047 165 ft 9 kts 268°
2026-05-06 20:42 61.16980 -149.95644 165 ft 77 kts 270°
2026-05-06 20:42 61.16979 -149.97244 165 ft 145 kts 270°
2026-05-06 20:42 61.16976 -149.99770 171 ft 204 kts 269°
2026-05-06 20:42 61.16967 -150.02830 849 ft 214 kts 266°
2026-05-06 20:43 61.16844 -150.05762 1844 ft 204 kts 265°
2026-05-06 20:43 61.16754 -150.08791 2056 ft 220 kts 268°
2026-05-06 20:43 61.16694 -150.12079 2300 ft 236 kts 268°
2026-05-06 20:43 61.16634 -150.15558 2585 ft 252 kts 268°
2026-05-06 20:44 61.16568 -150.19260 3043 ft 261 kts 268°
2026-05-06 20:44 61.16500 -150.22998 3641 ft 264 kts 267°
2026-05-06 20:44 61.16485 -150.26804 4281 ft 266 kts 276°
2026-05-06 20:44 61.16730 -150.30571 4856 ft 269 kts 278°
2026-05-06 20:45 61.17016 -150.34399 5475 ft 271 kts 278°
2026-05-06 20:45 61.17305 -150.38257 6039 ft 275 kts 278°
2026-05-06 20:45 61.17598 -150.42189 6644 ft 276 kts 278°
2026-05-06 20:45 61.17885 -150.46057 7258 ft 278 kts 277°
2026-05-06 20:46 61.18179 -150.50024 7892 ft 279 kts 278°
2026-05-06 20:46 61.18469 -150.53966 8416 ft 281 kts 278°
2026-05-06 20:46 61.18763 -150.57976 8984 ft 282 kts 277°
2026-05-06 20:46 61.19056 -150.62001 9523 ft 284 kts 278°
2026-05-06 20:47 61.19352 -150.66077 10029 ft 286 kts 277°
2026-05-06 20:47 61.19645 -150.70128 10500 ft 290 kts 277°
2026-05-06 20:47 61.19946 -150.74310 10918 ft 294 kts 277°
2026-05-06 20:47 61.20249 -150.78548 11218 ft 304 kts 277°
2026-05-06 20:48 61.20562 -150.82941 11365 ft 319 kts 277°
2026-05-06 20:48 61.20894 -150.87642 11416 ft 338 kts 277°
2026-05-06 20:48 61.21242 -150.92589 11526 ft 355 kts 277°
2026-05-06 20:48 61.21601 -150.97717 11701 ft 370 kts 278°
2026-05-06 20:49 61.21974 -151.03064 11901 ft 385 kts 277°
2026-05-06 20:49 61.22363 -151.08679 12326 ft 392 kts 278°
2026-05-06 20:49 61.22749 -151.14284 12933 ft 396 kts 278°
2026-05-06 20:49 61.23131 -151.19865 13528 ft 399 kts 278°
2026-05-06 20:50 61.23518 -151.25552 14146 ft 401 kts 278°
2026-05-06 20:50 61.23907 -151.31317 14760 ft 403 kts 277°
2026-05-06 20:50 61.24293 -151.37065 15333 ft 407 kts 277°
2026-05-06 20:50 61.24680 -151.42870 15892 ft 410 kts 277°
2026-05-06 20:51 61.25067 -151.48732 16466 ft 412 kts 277°
2026-05-06 20:51 61.25452 -151.54596 17050 ft 415 kts 277°
2026-05-06 20:51 61.25842 -151.60579 17589 ft 419 kts 277°
2026-05-06 20:51 61.26232 -151.66615 18107 ft 423 kts 276°
2026-05-06 20:52 61.26622 -151.72676 18675 ft 426 kts 276°
2026-05-06 20:52 61.27009 -151.78764 19234 ft 428 kts 276°
2026-05-06 20:52 61.27396 -151.84885 19782 ft 431 kts 276°
2026-05-06 20:52 61.27779 -151.91003 20359 ft 432 kts 277°
2026-05-06 20:53 61.28161 -151.97200 20925 ft 433 kts 276°
2026-05-06 20:53 61.28341 -152.03413 21429 ft 435 kts 271°
2026-05-06 20:53 61.28388 -152.09692 21905 ft 437 kts 271°
2026-05-06 20:53 61.28425 -152.15948 22376 ft 439 kts 271°
2026-05-06 20:54 61.28458 -152.22266 22856 ft 441 kts 271°
2026-05-06 20:54 61.28488 -152.28693 23328 ft 443 kts 271°
2026-05-06 20:54 61.28515 -152.35039 23766 ft 445 kts 272°
2026-05-06 20:54 61.28538 -152.41450 24187 ft 447 kts 272°
2026-05-06 20:55 61.28559 -152.47882 24619 ft 449 kts 272°
2026-05-06 20:55 61.28576 -152.54361 25057 ft 450 kts 272°
2026-05-06 20:55 61.28590 -152.60866 25403 ft 454 kts 272°
2026-05-06 20:55 61.28602 -152.67482 25782 ft 456 kts 271°
2026-05-06 20:56 61.28610 -152.74080 25860 ft 458 kts 271°
2026-05-06 20:56 61.28614 -152.80667 25880 ft 455 kts 271°
2026-05-06 20:56 61.28615 -152.87195 25870 ft 455 kts 271°
2026-05-06 20:56 61.28614 -152.93686 25880 ft 454 kts 271°
2026-05-06 20:57 61.28609 -153.00295 25872 ft 454 kts 272°
2026-05-06 20:57 61.28601 -153.06828 25866 ft 454 kts 272°
2026-05-06 20:57 61.28589 -153.13368 25854 ft 454 kts 271°
2026-05-06 20:57 61.28575 -153.19865 25828 ft 454 kts 271°
2026-05-06 20:58 61.28558 -153.26405 25818 ft 454 kts 271°
2026-05-06 20:58 61.28537 -153.32977 25804 ft 453 kts 271°
2026-05-06 20:58 61.28513 -153.39430 25807 ft 453 kts 271°
2026-05-06 20:58 61.28486 -153.46037 25807 ft 454 kts 271°
2026-05-06 20:59 61.28456 -153.52563 25822 ft 453 kts 271°
2026-05-06 20:59 61.28423 -153.59078 25851 ft 453 kts 271°
2026-05-06 20:59 61.28387 -153.65549 25874 ft 454 kts 271°
2026-05-06 20:59 61.28348 -153.72096 25915 ft 453 kts 271°
2026-05-06 21:00 61.28305 -153.78633 25958 ft 452 kts 271°
2026-05-06 21:00 61.28259 -153.85152 25936 ft 452 kts 271°
2026-05-06 21:00 61.28211 -153.91649 25914 ft 452 kts 271°
2026-05-06 21:00 61.28159 -153.98169 25876 ft 452 kts 271°
2026-05-06 21:01 61.28104 -154.04672 25858 ft 452 kts 271°
2026-05-06 21:01 61.28047 -154.11102 25839 ft 451 kts 271°
2026-05-06 21:01 61.27986 -154.17604 25838 ft 451 kts 271°
2026-05-06 21:01 61.27922 -154.24135 25832 ft 453 kts 271°
2026-05-06 21:02 61.27854 -154.30661 25811 ft 453 kts 271°
2026-05-06 21:02 61.27784 -154.37177 25872 ft 451 kts 271°
2026-05-06 21:02 61.27710 -154.43658 25915 ft 452 kts 271°
2026-05-06 21:02 61.27634 -154.50128 25949 ft 451 kts 271°
2026-05-06 21:03 61.27555 -154.56598 26004 ft 450 kts 271°
2026-05-06 21:03 61.27472 -154.63112 26010 ft 451 kts 271°
2026-05-06 21:03 61.27385 -154.69669 26047 ft 450 kts 270°
2026-05-06 21:03 61.27296 -154.76155 26031 ft 451 kts 270°
2026-05-06 21:04 61.27206 -154.82558 26045 ft 451 kts 270°
2026-05-06 21:04 61.27110 -154.89111 26039 ft 451 kts 270°
2026-05-06 21:04 61.27012 -154.95546 26060 ft 451 kts 270°
2026-05-06 21:04 61.26910 -155.02072 26056 ft 450 kts 270°
2026-05-06 21:05 61.26806 -155.08543 26053 ft 451 kts 270°
2026-05-06 21:05 61.26699 -155.15037 26055 ft 451 kts 270°
2026-05-06 21:05 61.26588 -155.21561 26051 ft 452 kts 270°
2026-05-06 21:05 61.26474 -155.28049 26058 ft 452 kts 270°
2026-05-06 21:06 61.26356 -155.34570 26047 ft 451 kts 270°
2026-05-06 21:06 61.26237 -155.41014 26053 ft 452 kts 270°
2026-05-06 21:06 61.26115 -155.47476 26045 ft 453 kts 270°
2026-05-06 21:06 61.25988 -155.54010 26039 ft 453 kts 270°
2026-05-06 21:07 61.25858 -155.60518 26047 ft 453 kts 270°
2026-05-06 21:07 61.25724 -155.67090 26049 ft 453 kts 269°
2026-05-06 21:07 61.25590 -155.73546 26053 ft 454 kts 269°
2026-05-06 21:07 61.25451 -155.80063 26056 ft 454 kts 269°
2026-05-06 21:08 61.25307 -155.86620 26048 ft 454 kts 269°
2026-05-06 21:08 61.25161 -155.93152 26042 ft 454 kts 269°
2026-05-06 21:08 61.24985 -155.99608 26041 ft 455 kts 266°
2026-05-06 21:08 61.24657 -156.06097 26041 ft 455 kts 266°
2026-05-06 21:09 61.24307 -156.12614 26045 ft 455 kts 265°
2026-05-06 21:09 61.23951 -156.19113 26046 ft 455 kts 265°
2026-05-06 21:09 61.23591 -156.25629 26061 ft 456 kts 265°
2026-05-06 21:09 61.23226 -156.32149 26055 ft 456 kts 265°
2026-05-06 21:10 61.22861 -156.38614 26068 ft 456 kts 265°
2026-05-06 21:10 61.22490 -156.45134 26068 ft 455 kts 265°
2026-05-06 21:10 61.22115 -156.51653 26065 ft 456 kts 265°
2026-05-06 21:10 61.21738 -156.58139 26070 ft 456 kts 265°
2026-05-06 21:11 61.21354 -156.64697 26076 ft 457 kts 265°
2026-05-06 21:11 61.20973 -156.71146 26078 ft 457 kts 265°
2026-05-06 21:11 61.20583 -156.77698 26076 ft 457 kts 265°
2026-05-06 21:11 61.20188 -156.84265 26072 ft 457 kts 264°
2026-05-06 21:12 61.19793 -156.90779 26081 ft 457 kts 264°
2026-05-06 21:12 61.19401 -156.97208 26083 ft 457 kts 264°
2026-05-06 21:12 61.18995 -157.03804 26077 ft 457 kts 264°
2026-05-06 21:12 61.18593 -157.10274 26080 ft 457 kts 264°
2026-05-06 21:13 61.18187 -157.16760 26070 ft 457 kts 264°
2026-05-06 21:13 61.17777 -157.23265 26070 ft 458 kts 264°
2026-05-06 21:13 61.17363 -157.29762 26069 ft 457 kts 264°
2026-05-06 21:13 61.16946 -157.36282 26064 ft 457 kts 264°
2026-05-06 21:14 61.16526 -157.42786 26065 ft 458 kts 265°
2026-05-06 21:14 61.16106 -157.49245 26058 ft 458 kts 265°
2026-05-06 21:14 61.15694 -157.55524 26055 ft 459 kts 265°
2026-05-06 21:14 61.15263 -157.62056 26057 ft 459 kts 264°
2026-05-06 21:15 61.14827 -157.68597 26066 ft 460 kts 264°
2026-05-06 21:15 61.14393 -157.75078 26064 ft 459 kts 264°
2026-05-06 21:15 61.13952 -157.81606 26067 ft 459 kts 264°
2026-05-06 21:15 61.13507 -157.88148 26048 ft 459 kts 264°
2026-05-06 21:16 61.13061 -157.94658 26038 ft 459 kts 264°
2026-05-06 21:16 61.12614 -158.01123 26024 ft 459 kts 264°
2026-05-06 21:16 61.12163 -158.07606 26019 ft 458 kts 264°
2026-05-06 21:16 61.11710 -158.14081 26022 ft 458 kts 264°
2026-05-06 21:17 61.11250 -158.20610 26025 ft 459 kts 264°
2026-05-06 21:17 61.10787 -158.27122 26027 ft 459 kts 264°
2026-05-06 21:17 61.10322 -158.33623 26028 ft 459 kts 264°
2026-05-06 21:17 61.09856 -158.40091 26019 ft 460 kts 264°
2026-05-06 21:18 61.09380 -158.46648 26017 ft 460 kts 264°
2026-05-06 21:18 61.08901 -158.53206 26003 ft 461 kts 264°
2026-05-06 21:18 61.08428 -158.59642 26016 ft 461 kts 264°
2026-05-06 21:18 61.07943 -158.66185 26028 ft 461 kts 263°
2026-05-06 21:19 61.07458 -158.72693 26044 ft 462 kts 263°
2026-05-06 21:19 61.06965 -158.79274 26054 ft 462 kts 263°
2026-05-06 21:19 61.06471 -158.85808 26058 ft 462 kts 263°
2026-05-06 21:19 61.05977 -158.92297 26066 ft 462 kts 263°
2026-05-06 21:20 61.05476 -158.98836 26072 ft 463 kts 263°
2026-05-06 21:20 61.04969 -159.05418 26077 ft 464 kts 263°
2026-05-06 21:20 61.04464 -159.11920 26078 ft 463 kts 263°
2026-05-06 21:20 61.03954 -159.18449 26082 ft 462 kts 263°
2026-05-06 21:21 61.03445 -159.24922 26085 ft 462 kts 263°
2026-05-06 21:21 61.02928 -159.31464 26080 ft 462 kts 263°
2026-05-06 21:21 61.02409 -159.37988 26056 ft 463 kts 263°
2026-05-06 21:21 61.01883 -159.44550 26030 ft 463 kts 263°
2026-05-06 21:22 61.01360 -159.51038 25999 ft 464 kts 263°
2026-05-06 21:22 61.00831 -159.57556 25985 ft 463 kts 263°
2026-05-06 21:22 61.00296 -159.64104 25985 ft 464 kts 263°
2026-05-06 21:22 60.99762 -159.70604 25991 ft 464 kts 262°
2026-05-06 21:23 60.99217 -159.77191 25991 ft 464 kts 262°
2026-05-06 21:23 60.98679 -159.83655 26008 ft 464 kts 262°
2026-05-06 21:23 60.98128 -159.90245 26029 ft 464 kts 262°
2026-05-06 21:23 60.97580 -159.96751 26046 ft 465 kts 262°
2026-05-06 21:24 60.97028 -160.03271 26061 ft 465 kts 262°
2026-05-06 21:24 60.96473 -160.09781 26070 ft 465 kts 262°
2026-05-06 21:24 60.95913 -160.16306 26077 ft 466 kts 262°
2026-05-06 21:24 60.95353 -160.22795 26084 ft 465 kts 262°
2026-05-06 21:25 60.94785 -160.29343 26094 ft 465 kts 262°
2026-05-06 21:25 60.94212 -160.35906 26097 ft 465 kts 262°
2026-05-06 21:25 60.93646 -160.42352 26098 ft 464 kts 262°
2026-05-06 21:25 60.93070 -160.48871 26103 ft 464 kts 262°
2026-05-06 21:26 60.92496 -160.55336 26104 ft 464 kts 262°
2026-05-06 21:26 60.91909 -160.61900 26105 ft 464 kts 262°
2026-05-06 21:26 60.91332 -160.68320 26108 ft 465 kts 261°
2026-05-06 21:26 60.90743 -160.74843 26109 ft 465 kts 262°
2026-05-06 21:27 60.90151 -160.81352 26109 ft 465 kts 262°
2026-05-06 21:27 60.89557 -160.87848 26105 ft 465 kts 262°
2026-05-06 21:27 60.88961 -160.94333 26107 ft 465 kts 262°
2026-05-06 21:27 60.88357 -161.00862 26103 ft 465 kts 262°
2026-05-06 21:28 60.87754 -161.07350 26107 ft 464 kts 262°
2026-05-06 21:28 60.87146 -161.13847 26105 ft 464 kts 261°
2026-05-06 21:28 60.86543 -161.20264 26108 ft 464 kts 262°
2026-05-06 21:28 60.85934 -161.26714 26104 ft 464 kts 262°
2026-05-06 21:29 60.85313 -161.33240 26112 ft 464 kts 262°
2026-05-06 21:29 60.84692 -161.39743 26110 ft 465 kts 262°
2026-05-06 21:29 60.84073 -161.46187 26112 ft 464 kts 262°
2026-05-06 21:29 60.83452 -161.52615 26118 ft 464 kts 262°
2026-05-06 21:30 60.82828 -161.59049 26116 ft 465 kts 262°
2026-05-06 21:30 60.82196 -161.65521 26115 ft 465 kts 261°
2026-05-06 21:30 60.81561 -161.71991 26125 ft 465 kts 261°
2026-05-06 21:30 60.80924 -161.78445 26126 ft 465 kts 261°
2026-05-06 21:31 60.80283 -161.84911 26128 ft 465 kts 261°
2026-05-06 21:31 60.79640 -161.91359 26127 ft 465 kts 261°
2026-05-06 21:31 60.78990 -161.97847 26124 ft 464 kts 261°
2026-05-06 21:31 60.78337 -162.04326 26125 ft 464 kts 261°
2026-05-06 21:32 60.77693 -162.10686 26121 ft 464 kts 261°
2026-05-06 21:32 60.76382 -162.23535 26122 ft 463 kts 261°
2026-05-06 21:32 60.75714 -162.30037 26118 ft 464 kts 261°
2026-05-06 21:33 60.75058 -162.36379 26115 ft 463 kts 261°
2026-05-06 21:33 60.74384 -162.42873 26111 ft 464 kts 261°
2026-05-06 21:33 60.73719 -162.49243 26110 ft 463 kts 261°
2026-05-06 21:33 60.73049 -162.55624 26108 ft 464 kts 261°
2026-05-06 21:34 60.72368 -162.62093 26106 ft 464 kts 261°
2026-05-06 21:34 60.71693 -162.68465 26109 ft 465 kts 260°
2026-05-06 21:34 60.71011 -162.74870 26109 ft 465 kts 260°
2026-05-06 21:34 60.70321 -162.81317 26109 ft 464 kts 260°
2026-05-06 21:35 60.69523 -162.87676 26109 ft 465 kts 257°
2026-05-06 21:35 60.68658 -162.93959 26108 ft 465 kts 257°
2026-05-06 21:35 60.67770 -163.00337 26107 ft 466 kts 257°
2026-05-06 21:35 60.66888 -163.06635 26105 ft 466 kts 257°
2026-05-06 21:36 60.66000 -163.12941 26105 ft 465 kts 257°
2026-05-06 21:36 60.65100 -163.19289 26106 ft 465 kts 257°
2026-05-06 21:36 60.64203 -163.25594 26107 ft 466 kts 257°
2026-05-06 21:36 60.63309 -163.31850 26105 ft 466 kts 257°
2026-05-06 21:37 60.62399 -163.38184 26107 ft 465 kts 257°
2026-05-06 21:37 60.61487 -163.44513 26106 ft 466 kts 257°
2026-05-06 21:37 60.60576 -163.50801 26107 ft 466 kts 257°
2026-05-06 21:37 60.59669 -163.57044 26109 ft 466 kts 257°
2026-05-06 21:38 60.58746 -163.63365 26108 ft 466 kts 257°
2026-05-06 21:38 60.57821 -163.69679 26118 ft 466 kts 256°
2026-05-06 21:38 60.56899 -163.75949 26112 ft 467 kts 256°
2026-05-06 21:38 60.55977 -163.82199 26116 ft 466 kts 256°
2026-05-06 21:39 60.55040 -163.88521 26120 ft 467 kts 256°
2026-05-06 21:39 60.54107 -163.94792 26114 ft 467 kts 256°
2026-05-06 21:39 60.53165 -164.01105 26117 ft 467 kts 256°
2026-05-06 21:39 60.52228 -164.07353 26115 ft 468 kts 256°
2026-05-06 21:40 60.51277 -164.13678 26118 ft 467 kts 256°
2026-05-06 21:40 60.50328 -164.19963 26119 ft 468 kts 257°
2026-05-06 21:40 60.49386 -164.26181 26117 ft 468 kts 256°
2026-05-06 21:40 60.48424 -164.32504 26116 ft 468 kts 257°
2026-05-06 21:41 60.47474 -164.38727 26120 ft 468 kts 257°
2026-05-06 21:41 60.46508 -164.45035 26120 ft 468 kts 256°
2026-05-06 21:41 60.45540 -164.51327 26125 ft 468 kts 257°
2026-05-06 21:41 60.44574 -164.57585 26116 ft 468 kts 257°
2026-05-06 21:42 60.43605 -164.63840 26112 ft 468 kts 256°
2026-05-06 21:42 60.42634 -164.70088 26116 ft 469 kts 256°
2026-05-06 21:42 60.41653 -164.76375 26108 ft 469 kts 256°
2026-05-06 21:42 60.40680 -164.82623 26119 ft 469 kts 256°
2026-05-06 21:43 60.39699 -164.88908 26118 ft 468 kts 256°
2026-05-06 21:43 60.38725 -164.95126 26119 ft 468 kts 256°
2026-05-06 21:43 60.37739 -165.01399 26128 ft 468 kts 256°
2026-05-06 21:43 60.36758 -165.07619 26131 ft 468 kts 256°
2026-05-06 21:44 60.35770 -165.13863 26127 ft 469 kts 256°
2026-05-06 21:44 60.34774 -165.20129 26129 ft 469 kts 256°
2026-05-06 21:44 60.33783 -165.26343 26126 ft 469 kts 256°
2026-05-06 21:44 60.32786 -165.32571 26123 ft 469 kts 256°
2026-05-06 21:45 60.31787 -165.38792 26122 ft 469 kts 256°
2026-05-06 21:45 60.30786 -165.45003 26119 ft 469 kts 256°
2026-05-06 21:45 60.29774 -165.51256 26118 ft 469 kts 256°
2026-05-06 21:45 60.28766 -165.57469 26116 ft 469 kts 256°
2026-05-06 21:46 60.27757 -165.63666 26115 ft 469 kts 256°
2026-05-06 21:46 60.26737 -165.69907 26117 ft 470 kts 255°
2026-05-06 21:46 60.25719 -165.76111 26115 ft 470 kts 255°
2026-05-06 21:46 60.24694 -165.82340 26112 ft 470 kts 255°
2026-05-06 21:47 60.23671 -165.88535 26107 ft 470 kts 255°
2026-05-06 21:47 60.22633 -165.94797 26102 ft 470 kts 255°
2026-05-06 21:47 60.21613 -166.00926 26102 ft 470 kts 255°
2026-05-06 21:47 60.20579 -166.07126 26099 ft 470 kts 255°
2026-05-06 21:48 60.19534 -166.13368 26099 ft 469 kts 255°
2026-05-06 21:48 60.18501 -166.19514 26100 ft 469 kts 255°
2026-05-06 21:48 60.17446 -166.25772 26096 ft 469 kts 255°
2026-05-06 21:48 60.16402 -166.31943 26101 ft 470 kts 255°
2026-05-06 21:49 60.15356 -166.38103 26099 ft 470 kts 255°
2026-05-06 21:49 60.14311 -166.44240 26096 ft 471 kts 255°
2026-05-06 21:49 60.13254 -166.50426 26097 ft 471 kts 255°
2026-05-06 21:49 60.12191 -166.56625 26102 ft 470 kts 255°
2026-05-06 21:50 60.11128 -166.62802 26109 ft 470 kts 255°
2026-05-06 21:50 60.10066 -166.68955 26117 ft 471 kts 254°
2026-05-06 21:50 60.08991 -166.75163 26124 ft 472 kts 254°
2026-05-06 21:50 60.07927 -166.81284 26135 ft 471 kts 254°
2026-05-06 21:51 60.06852 -166.87448 26131 ft 471 kts 254°
2026-05-06 21:51 60.05775 -166.93608 26139 ft 470 kts 254°
2026-05-06 21:51 60.04691 -166.99779 26142 ft 470 kts 254°
2026-05-06 21:51 60.03607 -167.05937 26153 ft 470 kts 254°
2026-05-06 21:52 60.02522 -167.12080 26140 ft 471 kts 254°
2026-05-06 21:52 60.01442 -167.18172 26160 ft 471 kts 254°
2026-05-06 21:52 60.00344 -167.24345 26150 ft 471 kts 254°
2026-05-06 21:52 59.99258 -167.30435 26152 ft 471 kts 254°
2026-05-06 21:53 59.98160 -167.36568 26153 ft 471 kts 254°
2026-05-06 21:53 59.97049 -167.42754 26159 ft 472 kts 254°
2026-05-06 21:53 59.95952 -167.48842 26156 ft 472 kts 254°
2026-05-06 21:53 59.94844 -167.54974 26157 ft 472 kts 254°
2026-05-06 21:54 59.93735 -167.61089 26150 ft 472 kts 254°
2026-05-06 21:54 59.92616 -167.67239 26162 ft 473 kts 253°
2026-05-06 21:54 59.91499 -167.73360 26156 ft 473 kts 253°
2026-05-06 21:54 59.90379 -167.79507 26155 ft 473 kts 253°
2026-05-06 21:55 59.89279 -167.85631 26154 ft 473 kts 253°
2026-05-06 21:55 59.88163 -167.91836 26149 ft 473 kts 253°
2026-05-06 21:55 59.87055 -167.97978 26149 ft 473 kts 253°
2026-05-06 21:55 59.85951 -168.04074 26144 ft 474 kts 253°
2026-05-06 21:56 59.84836 -168.10208 26144 ft 474 kts 253°
2026-05-06 21:56 59.83722 -168.16322 26151 ft 475 kts 253°
2026-05-06 21:56 59.82590 -168.22504 26153 ft 475 kts 253°
2026-05-06 21:56 59.81455 -168.28683 26151 ft 475 kts 253°
2026-05-06 21:57 59.80331 -168.34788 26151 ft 475 kts 253°
2026-05-06 21:57 59.79207 -168.40871 26148 ft 475 kts 253°
2026-05-06 21:57 59.78067 -168.47014 26149 ft 476 kts 253°
2026-05-06 21:57 59.76924 -168.53159 26145 ft 476 kts 253°
2026-05-06 21:58 59.75782 -168.59282 26149 ft 476 kts 253°
2026-05-06 21:58 59.74633 -168.65418 26139 ft 477 kts 253°
2026-05-06 21:58 59.73477 -168.71576 26147 ft 477 kts 252°
2026-05-06 21:58 59.72322 -168.77701 26142 ft 478 kts 252°
2026-05-06 21:59 59.71154 -168.83887 26149 ft 478 kts 252°
2026-05-06 21:59 59.69993 -168.90006 26149 ft 478 kts 252°
2026-05-06 21:59 59.68827 -168.96140 26149 ft 478 kts 252°
2026-05-06 21:59 59.67665 -169.02228 26143 ft 478 kts 252°
2026-05-06 22:00 59.66494 -169.08345 26146 ft 479 kts 252°
2026-05-06 22:00 59.65318 -169.14471 26144 ft 479 kts 252°
2026-05-06 22:00 59.64130 -169.20641 26152 ft 479 kts 252°
2026-05-06 22:00 59.62948 -169.26758 26152 ft 480 kts 252°
2026-05-06 22:01 59.61759 -169.32890 26148 ft 480 kts 252°
2026-05-06 22:01 59.60579 -169.38960 26146 ft 480 kts 252°
2026-05-06 22:01 59.59375 -169.45134 26147 ft 481 kts 252°
2026-05-06 22:01 59.58186 -169.51213 26149 ft 481 kts 252°
2026-05-06 22:02 59.56971 -169.57405 26153 ft 481 kts 252°
2026-05-06 22:02 59.55770 -169.63506 26146 ft 481 kts 252°
2026-05-06 22:02 59.54561 -169.69632 26153 ft 482 kts 251°
2026-05-06 22:02 59.53344 -169.75772 26151 ft 482 kts 251°
2026-05-06 22:03 59.52132 -169.81876 26154 ft 482 kts 251°
2026-05-06 22:03 59.50922 -169.87949 26153 ft 483 kts 251°
2026-05-06 22:03 59.49681 -169.94154 26151 ft 482 kts 251°
2026-05-06 22:03 59.48472 -170.00188 26152 ft 482 kts 251°
2026-05-06 22:04 59.47245 -170.06288 26152 ft 483 kts 251°
2026-05-06 22:04 59.45998 -170.12466 26153 ft 483 kts 251°
2026-05-06 22:04 59.44764 -170.18568 26148 ft 483 kts 251°
2026-05-06 22:04 59.43523 -170.24681 26152 ft 484 kts 251°
2026-05-06 22:05 59.42285 -170.30763 26152 ft 484 kts 251°
2026-05-06 22:05 59.41034 -170.36888 26152 ft 484 kts 251°
2026-05-06 22:05 59.39789 -170.42969 26150 ft 484 kts 251°
2026-05-06 22:05 59.38540 -170.49049 26152 ft 485 kts 251°
2026-05-06 22:06 59.37274 -170.55191 26152 ft 485 kts 251°
2026-05-06 22:06 59.36006 -170.61328 26152 ft 486 kts 251°
2026-05-06 22:06 59.34756 -170.67360 26152 ft 486 kts 250°
2026-05-06 22:06 59.33474 -170.73528 26153 ft 487 kts 250°
2026-05-06 22:07 59.32212 -170.79579 26151 ft 486 kts 250°
2026-05-06 22:07 59.30929 -170.85710 26152 ft 487 kts 250°
2026-05-06 22:07 59.29643 -170.91843 26152 ft 488 kts 250°
2026-05-06 22:07 59.28368 -170.97899 26153 ft 487 kts 250°
2026-05-06 22:08 59.27069 -171.04056 26151 ft 486 kts 250°
2026-05-06 22:08 59.25800 -171.10051 26150 ft 487 kts 250°
2026-05-06 22:08 59.24505 -171.16151 26151 ft 487 kts 250°
2026-05-06 22:08 59.23202 -171.22270 26148 ft 488 kts 250°
2026-05-06 22:09 59.21897 -171.28384 26151 ft 488 kts 249°
2026-05-06 22:09 59.20603 -171.34424 26150 ft 488 kts 249°
2026-05-06 22:09 59.19296 -171.40509 26152 ft 488 kts 249°
2026-05-06 22:09 59.17985 -171.46593 26148 ft 488 kts 249°
2026-05-06 22:10 59.16678 -171.52643 26152 ft 489 kts 249°
2026-05-06 22:10 59.15352 -171.58762 26150 ft 489 kts 249°
2026-05-06 22:10 59.14066 -171.64795 26184 ft 493 kts 250°
2026-05-06 22:10 59.12799 -171.71072 26578 ft 496 kts 250°
2026-05-06 22:11 59.11559 -171.77225 27167 ft 495 kts 250°
2026-05-06 22:11 59.10303 -171.83423 27773 ft 493 kts 250°
2026-05-06 22:11 59.09040 -171.89633 28132 ft 496 kts 250°
2026-05-06 22:11 59.07780 -171.95801 28153 ft 496 kts 250°
2026-05-06 22:12 59.05246 -172.08136 28149 ft 493 kts 250°
2026-05-06 22:12 59.02685 -172.20519 28151 ft 493 kts 250°
2026-05-06 22:13 59.00126 -172.32808 28154 ft 493 kts 250°
2026-05-06 22:13 58.97546 -172.45119 28156 ft 493 kts 250°
2026-05-06 22:14 58.94977 -172.57310 28144 ft 494 kts 250°
2026-05-06 22:14 58.92416 -172.69386 28154 ft 495 kts 249°
2026-05-06 22:15 58.89811 -172.81595 28151 ft 495 kts 249°
2026-05-06 22:15 58.87181 -172.93852 28143 ft 494 kts 249°
2026-05-06 22:16 58.84549 -173.06047 28144 ft 493 kts 249°
2026-05-06 22:16 58.81905 -173.18221 28141 ft 493 kts 249°
2026-05-06 22:17 58.79255 -173.30353 28135 ft 493 kts 249°
2026-05-06 22:17 58.76594 -173.42467 28137 ft 494 kts 248°
2026-05-06 22:18 58.73919 -173.54570 28133 ft 493 kts 249°
2026-05-06 22:18 58.71248 -173.66589 28133 ft 492 kts 248°
2026-05-06 22:19 58.68539 -173.78711 28130 ft 493 kts 248°
2026-05-06 22:19 58.65850 -173.90677 28123 ft 491 kts 248°
2026-05-06 22:20 58.63239 -174.02708 28126 ft 492 kts 248°
2026-05-06 22:20 58.60616 -174.14790 28122 ft 491 kts 248°
2026-05-06 22:21 58.57978 -174.26843 28123 ft 493 kts 248°
2026-05-06 22:21 58.55328 -174.38882 28128 ft 492 kts 248°
2026-05-06 22:22 58.52684 -174.50812 28127 ft 489 kts 248°
2026-05-06 22:22 58.50020 -174.62769 28118 ft 492 kts 248°
2026-05-06 22:23 58.47305 -174.74878 28123 ft 499 kts 246°
2026-05-06 22:23 58.44573 -174.86997 28117 ft 495 kts 246°
2026-05-06 22:24 58.41840 -174.99048 28113 ft 498 kts 246°
2026-05-06 22:24 58.39101 -175.11057 28110 ft 497 kts 246°
2026-05-06 22:25 58.36347 -175.23062 28101 ft 497 kts 246°
2026-05-06 22:25 58.33575 -175.35078 28104 ft 498 kts 246°
2026-05-06 22:26 58.30787 -175.47098 28101 ft 497 kts 246°
2026-05-06 22:26 58.28004 -175.59029 28099 ft 498 kts 246°
2026-05-06 22:27 58.25196 -175.70999 28096 ft 497 kts 245°
2026-05-06 22:27 58.22376 -175.82956 28092 ft 498 kts 245°
2026-05-06 22:28 58.19549 -175.94875 28097 ft 498 kts 244°
2026-05-06 22:28 58.16720 -176.06737 28089 ft 498 kts 244°
2026-05-06 22:29 58.13857 -176.18674 28089 ft 499 kts 244°
2026-05-06 22:29 58.10989 -176.30571 28084 ft 500 kts 244°
2026-05-06 22:30 58.08104 -176.42468 28080 ft 500 kts 244°
2026-05-06 22:30 58.05217 -176.54312 28081 ft 500 kts 244°
2026-05-06 22:31 58.02305 -176.66193 28077 ft 501 kts 243°
2026-05-06 22:31 57.99387 -176.78035 28071 ft 501 kts 243°
2026-05-06 22:32 57.96480 -176.89822 28066 ft 501 kts 243°
2026-05-06 22:32 57.93525 -177.01741 28066 ft 503 kts 243°
2026-05-06 22:33 57.90569 -177.13606 28063 ft 502 kts 243°
2026-05-06 22:33 57.87604 -177.25435 28060 ft 504 kts 242°
2026-05-06 22:34 57.84624 -177.37265 28057 ft 504 kts 242°
2026-05-06 22:34 57.81623 -177.49112 28051 ft 504 kts 242°
2026-05-06 22:35 57.78620 -177.60904 28055 ft 506 kts 242°
2026-05-06 22:35 57.75589 -177.72743 28045 ft 504 kts 241°
2026-05-06 22:36 57.72559 -177.84518 28043 ft 506 kts 241°
2026-05-06 22:36 57.69516 -177.96278 28038 ft 505 kts 241°
2026-05-06 22:37 57.66452 -178.08057 28034 ft 506 kts 240°
2026-05-06 22:37 57.63374 -178.19829 28025 ft 506 kts 240°
2026-05-06 22:38 57.60302 -178.31519 28028 ft 506 kts 240°
2026-05-06 22:38 57.57196 -178.43274 28020 ft 505 kts 240°
2026-05-06 22:39 57.54097 -178.54941 28019 ft 505 kts 240°
2026-05-06 22:39 57.50979 -178.66621 28012 ft 505 kts 239°
2026-05-06 22:40 57.47859 -178.78249 28006 ft 504 kts 239°
2026-05-06 22:40 57.44753 -178.89763 28009 ft 505 kts 239°
2026-05-06 22:41 57.41608 -179.01364 27996 ft 504 kts 239°
2026-05-06 22:41 57.40023 -179.07190 28009 ft 504 kts 239°
2026-05-06 22:42 57.36863 -179.18756 27985 ft 504 kts 239°
2026-05-06 22:42 57.33702 -179.30267 27986 ft 505 kts 239°
2026-05-06 22:42 57.32127 -179.35983 27991 ft 504 kts 239°
2026-05-06 22:43 57.30529 -179.41768 27991 ft 504 kts 239°
2026-05-06 22:43 57.28945 -179.47485 27983 ft 505 kts 239°
2026-05-06 22:43 57.27352 -179.53223 27978 ft 504 kts 238°
2026-05-06 22:43 57.25761 -179.58940 27974 ft 503 kts 238°
2026-05-06 22:44 57.24160 -179.64673 27967 ft 505 kts 238°
2026-05-06 22:44 57.22554 -179.70413 27967 ft 505 kts 238°
2026-05-06 22:44 57.20950 -179.76135 27964 ft 504 kts 238°
2026-05-06 22:44 57.19340 -179.81857 27970 ft 504 kts 238°
2026-05-06 22:45 57.17724 -179.87590 27963 ft 506 kts 238°
2026-05-06 22:45 57.16095 -179.93356 27962 ft 506 kts 238°
2026-05-06 22:45 57.14476 -179.99072 27951 ft 505 kts 238°
2026-05-06 22:45 57.12868 179.95267 27950 ft 504 kts 238°
2026-05-06 22:46 57.11245 179.89566 27951 ft 505 kts 238°
2026-05-06 22:46 57.09618 179.83865 27945 ft 505 kts 238°
2026-05-06 22:46 57.07989 179.78169 27946 ft 503 kts 238°
2026-05-06 22:46 57.06377 179.72549 27947 ft 506 kts 238°
2026-05-06 22:47 57.04722 179.66792 27946 ft 506 kts 238°
2026-05-06 22:47 57.03079 179.61093 27943 ft 505 kts 238°
2026-05-06 22:47 57.01466 179.55507 27942 ft 505 kts 238°
2026-05-06 22:47 56.99808 179.49785 27941 ft 506 kts 238°
2026-05-06 22:48 56.98168 179.44135 27935 ft 507 kts 238°
2026-05-06 22:48 56.96503 179.38415 27931 ft 507 kts 238°
2026-05-06 22:48 56.94864 179.32797 27927 ft 507 kts 237°
2026-05-06 22:48 56.93210 179.27141 27923 ft 506 kts 237°
2026-05-06 22:49 56.91547 179.21469 27921 ft 507 kts 237°
2026-05-06 22:49 56.89886 179.15817 27920 ft 507 kts 237°
2026-05-06 22:49 56.88208 179.10121 27927 ft 506 kts 237°
2026-05-06 22:49 56.86550 179.04507 27924 ft 508 kts 237°
2026-05-06 22:50 56.84878 178.98859 27922 ft 508 kts 237°
2026-05-06 22:50 56.83219 178.93269 27915 ft 506 kts 237°
2026-05-06 22:50 56.81539 178.87619 27913 ft 505 kts 236°
2026-05-06 22:50 56.79860 178.81990 27912 ft 507 kts 237°
2026-05-06 22:51 56.78192 178.76407 27908 ft 506 kts 236°
2026-05-06 22:51 56.76497 178.70752 27909 ft 507 kts 236°
2026-05-06 22:51 56.74828 178.65193 27903 ft 507 kts 236°
2026-05-06 22:51 56.73137 178.59576 27899 ft 507 kts 236°
2026-05-06 22:52 56.71444 178.53966 27887 ft 506 kts 236°
2026-05-06 22:52 56.69752 178.48372 27898 ft 506 kts 236°
2026-05-06 22:52 56.68073 178.42835 27883 ft 506 kts 236°
2026-05-06 22:52 56.66369 178.37230 27901 ft 507 kts 236°
2026-05-06 22:53 56.64657 178.31612 27881 ft 507 kts 235°
2026-05-06 22:53 56.62961 178.26053 27871 ft 505 kts 235°
2026-05-06 22:53 56.61272 178.20535 27870 ft 505 kts 235°
2026-05-06 22:53 56.59566 178.14977 27883 ft 506 kts 235°
2026-05-06 22:54 56.57859 178.09427 27875 ft 507 kts 235°
2026-05-06 22:54 56.56150 178.03880 27860 ft 504 kts 235°
2026-05-06 22:54 56.54439 177.98341 27862 ft 503 kts 235°
2026-05-06 22:54 56.52726 177.92813 27854 ft 505 kts 235°
2026-05-06 22:55 56.51024 177.87329 27859 ft 506 kts 235°
2026-05-06 22:55 56.49299 177.81787 27851 ft 505 kts 235°
2026-05-06 22:55 56.47592 177.76314 27849 ft 504 kts 235°
2026-05-06 22:55 56.45861 177.70773 27865 ft 504 kts 235°
2026-05-06 22:56 56.44136 177.65295 27845 ft 506 kts 234°
2026-05-06 22:56 56.42400 177.59810 27845 ft 504 kts 234°
2026-05-06 22:56 56.40667 177.54341 27855 ft 504 kts 234°
2026-05-06 22:56 56.38938 177.48901 27846 ft 504 kts 234°
2026-05-06 22:57 56.37206 177.43463 27848 ft 505 kts 234°
2026-05-06 22:57 56.35454 177.37975 27841 ft 505 kts 234°
2026-05-06 22:57 56.33701 177.32495 27844 ft 504 kts 233°
2026-05-06 22:57 56.31972 177.27100 27837 ft 505 kts 233°
2026-05-06 22:58 56.30201 177.21590 27816 ft 505 kts 233°
2026-05-06 22:58 56.28452 177.16159 27839 ft 504 kts 234°
2026-05-06 22:58 56.26704 177.10744 27824 ft 504 kts 234°
2026-05-06 22:58 56.24956 177.05342 27823 ft 504 kts 233°
2026-05-06 22:59 56.23190 176.99895 27820 ft 504 kts 233°
2026-05-06 22:59 56.21434 176.94492 27803 ft 504 kts 233°
2026-05-06 22:59 56.19667 176.89067 27814 ft 505 kts 233°
2026-05-06 22:59 56.17893 176.83632 27810 ft 505 kts 233°
2026-05-06 23:00 56.16116 176.78201 27795 ft 504 kts 233°
2026-05-06 23:00 56.14357 176.72833 27806 ft 503 kts 233°
2026-05-06 23:00 56.12577 176.67421 27780 ft 505 kts 233°
2026-05-06 23:00 56.10809 176.62054 27795 ft 505 kts 233°
2026-05-06 23:01 56.09031 176.56667 27794 ft 503 kts 233°
2026-05-06 23:01 56.07267 176.51334 27773 ft 503 kts 233°
2026-05-06 23:01 56.05487 176.45969 27800 ft 504 kts 233°
2026-05-06 23:01 56.03681 176.40536 27777 ft 505 kts 233°
2026-05-06 23:02 56.01904 176.35200 27782 ft 503 kts 233°
2026-05-06 23:02 56.00122 176.29860 27764 ft 502 kts 233°
2026-05-06 23:02 55.98331 176.24507 27766 ft 503 kts 232°
2026-05-06 23:02 55.96542 176.19173 27760 ft 503 kts 232°
2026-05-06 23:03 55.94759 176.13867 27767 ft 503 kts 232°
2026-05-06 23:03 55.92954 176.08507 27762 ft 502 kts 232°
2026-05-06 23:03 55.91177 176.03244 27740 ft 500 kts 232°
2026-05-06 23:03 55.89375 175.97916 27765 ft 502 kts 232°
2026-05-06 23:04 55.87583 175.92633 27749 ft 503 kts 233°
2026-05-06 23:04 55.85788 175.87349 27754 ft 502 kts 233°
2026-05-06 23:04 55.83963 175.81990 27749 ft 502 kts 232°
2026-05-06 23:04 55.82166 175.76726 27752 ft 503 kts 233°
2026-05-06 23:05 55.80366 175.71462 27753 ft 501 kts 233°
2026-05-06 23:05 55.78567 175.66214 27748 ft 501 kts 233°
2026-05-06 23:05 55.76736 175.60883 27743 ft 502 kts 233°
2026-05-06 23:05 55.74942 175.55673 27750 ft 502 kts 233°
2026-05-06 23:06 55.73132 175.50426 27742 ft 501 kts 233°
2026-05-06 23:06 55.71304 175.45137 27730 ft 500 kts 233°
2026-05-06 23:06 55.69501 175.39934 27735 ft 502 kts 233°
2026-05-06 23:06 55.67674 175.34676 27740 ft 503 kts 232°
2026-05-06 23:07 55.65836 175.29390 27721 ft 499 kts 232°
2026-05-06 23:07 55.64030 175.24210 27717 ft 499 kts 232°
2026-05-06 23:07 55.62212 175.19011 27732 ft 501 kts 232°
2026-05-06 23:07 55.60387 175.13802 27720 ft 499 kts 232°
2026-05-06 23:08 55.58566 175.08611 27735 ft 499 kts 232°
2026-05-06 23:08 55.56731 175.03398 27718 ft 500 kts 232°
2026-05-06 23:08 55.54916 174.98245 27725 ft 499 kts 232°
2026-05-06 23:08 55.53078 174.93043 27719 ft 499 kts 232°
2026-05-06 23:09 55.51252 174.87886 27723 ft 498 kts 232°
2026-05-06 23:09 55.49414 174.82704 27725 ft 499 kts 232°
2026-05-06 23:09 55.47570 174.77519 27721 ft 499 kts 233°
2026-05-06 23:09 55.45751 174.72411 27687 ft 498 kts 233°
2026-05-06 23:10 55.43912 174.67261 27698 ft 499 kts 232°
2026-05-06 23:10 55.42059 174.62080 27702 ft 498 kts 233°
2026-05-06 23:10 55.40214 174.56934 27694 ft 497 kts 233°
2026-05-06 23:10 55.38378 174.51823 27686 ft 498 kts 233°
2026-05-06 23:11 55.36530 174.46690 27683 ft 497 kts 233°
2026-05-06 23:11 55.34691 174.41594 27687 ft 498 kts 233°
2026-05-06 23:11 55.32838 174.36465 27674 ft 497 kts 233°
2026-05-06 23:11 55.30988 174.31361 27679 ft 497 kts 232°
2026-05-06 23:12 55.29140 174.26268 27660 ft 496 kts 232°
2026-05-06 23:12 55.27300 174.21213 27672 ft 498 kts 232°
2026-05-06 23:12 55.25428 174.16078 27667 ft 497 kts 232°
2026-05-06 23:12 55.23576 174.11005 27669 ft 497 kts 232°
2026-05-06 23:13 55.21720 174.05939 27672 ft 496 kts 232°
2026-05-06 23:13 55.19865 174.00879 27664 ft 496 kts 232°
2026-05-06 23:13 55.18001 173.95808 27654 ft 496 kts 233°
2026-05-06 23:13 55.16151 173.90784 27660 ft 495 kts 233°
2026-05-06 23:14 55.14300 173.85770 27655 ft 495 kts 233°
2026-05-06 23:14 55.12424 173.80696 27656 ft 495 kts 233°
2026-05-06 23:14 55.10622 173.75836 27661 ft 496 kts 233°
2026-05-06 23:14 55.08762 173.70827 27655 ft 495 kts 233°
2026-05-06 23:15 55.06892 173.65802 27649 ft 495 kts 233°
2026-05-06 23:15 55.05025 173.60792 27657 ft 495 kts 233°
2026-05-06 23:15 55.03159 173.55798 27645 ft 494 kts 233°
2026-05-06 23:15 55.01292 173.50812 27662 ft 494 kts 233°
2026-05-06 23:16 54.99421 173.45824 27647 ft 495 kts 233°
2026-05-06 23:16 54.97519 173.40762 27657 ft 494 kts 233°
2026-05-06 23:16 54.95645 173.35790 27651 ft 493 kts 233°
2026-05-06 23:16 54.93780 173.30847 27639 ft 493 kts 232°
2026-05-06 23:17 54.91918 173.25922 27638 ft 492 kts 232°
2026-05-06 23:17 54.90045 173.20978 27630 ft 492 kts 232°
2026-05-06 23:17 54.88166 173.16031 27636 ft 492 kts 233°
2026-05-06 23:17 54.86292 173.11104 27617 ft 491 kts 232°
2026-05-06 23:18 54.84392 173.06122 27623 ft 491 kts 233°
2026-05-06 23:18 54.82534 173.01256 27623 ft 491 kts 233°
2026-05-06 23:18 54.80645 172.96321 27630 ft 491 kts 233°
2026-05-06 23:18 54.78748 172.91374 27631 ft 490 kts 233°
2026-05-06 23:19 54.76873 172.86491 27627 ft 489 kts 233°
2026-05-06 23:19 54.74999 172.81627 27633 ft 490 kts 233°
2026-05-06 23:19 54.73103 172.76712 27632 ft 489 kts 233°
2026-05-06 23:19 54.71240 172.71890 27634 ft 489 kts 233°
2026-05-06 23:20 54.69336 172.66975 27627 ft 488 kts 233°
2026-05-06 23:20 54.67475 172.62180 27622 ft 487 kts 233°
2026-05-06 23:20 54.65586 172.57321 27621 ft 487 kts 233°
2026-05-06 23:20 54.63701 172.52481 27623 ft 488 kts 233°
2026-05-06 23:21 54.61821 172.47665 27628 ft 488 kts 233°
2026-05-06 23:21 54.59905 172.42789 27623 ft 487 kts 232°
2026-05-06 23:21 54.57871 172.38197 27632 ft 486 kts 230°
2026-05-06 23:21 54.55766 172.33632 27627 ft 485 kts 229°
2026-05-06 23:22 54.53669 172.29109 27631 ft 485 kts 229°
2026-05-06 23:22 54.51575 172.24606 27616 ft 484 kts 229°
2026-05-06 23:22 54.49459 172.20068 27623 ft 485 kts 229°
2026-05-06 23:22 54.47374 172.15608 27622 ft 485 kts 229°
2026-05-06 23:23 54.45251 172.11078 27616 ft 484 kts 229°
2026-05-06 23:23 54.43154 172.06612 27621 ft 485 kts 229°
2026-05-06 23:23 54.41055 172.02148 27620 ft 484 kts 229°
2026-05-06 23:23 54.38932 171.97644 27609 ft 484 kts 229°
2026-05-06 23:24 54.36811 171.93153 27610 ft 484 kts 229°
2026-05-06 23:24 54.34714 171.88722 27602 ft 483 kts 229°
2026-05-06 23:24 54.32603 171.84270 27602 ft 483 kts 229°
2026-05-06 23:24 54.30472 171.79782 27597 ft 483 kts 229°
2026-05-06 23:25 54.28369 171.75363 27598 ft 482 kts 229°
2026-05-06 23:25 54.26253 171.70923 27590 ft 482 kts 229°
2026-05-06 23:25 54.24148 171.66515 27587 ft 482 kts 229°
2026-05-06 23:25 54.22027 171.62082 27587 ft 481 kts 229°
2026-05-06 23:26 54.19920 171.57686 27586 ft 481 kts 229°
2026-05-06 23:26 54.17828 171.53328 27586 ft 480 kts 229°
2026-05-06 23:26 54.15696 171.48895 27581 ft 480 kts 229°
2026-05-06 23:26 54.13600 171.44545 27580 ft 480 kts 229°
2026-05-06 23:27 54.11470 171.40134 27580 ft 480 kts 229°
2026-05-06 23:27 54.09374 171.35797 27577 ft 480 kts 229°
2026-05-06 23:27 54.07238 171.31389 27577 ft 479 kts 228°
2026-05-06 23:27 54.05124 171.27033 27578 ft 480 kts 228°
2026-05-06 23:28 54.02999 171.22661 27576 ft 480 kts 228°
2026-05-06 23:28 54.00868 171.18286 27576 ft 479 kts 228°
2026-05-06 23:28 53.98772 171.13989 27577 ft 479 kts 228°
2026-05-06 23:28 53.96634 171.09615 27575 ft 479 kts 228°
2026-05-06 23:29 53.94518 171.05292 27576 ft 479 kts 228°
2026-05-06 23:29 53.92382 171.00937 27575 ft 479 kts 228°
2026-05-06 23:29 53.90255 170.96606 27575 ft 478 kts 228°